Location: Pittman
(37.9557°N, 80.9209°W)
Time: 14:57:09
(UTC+00:00)

Envisat - Pass Details

Date: 22 April 2026
Orbit: 761 x 762 km, 98.4° (Epoch: 15 May)

Event Time Altitude Azimuth Distance (km) Brightness Sun altitude
Rises 06:55:46 0° 30° (NNE) 3,229 7.3 -35.2°
Reaches altitude 10° 06:58:41 10° 47° (NE) 2,298 6.2 -35.0°
Enters shadow 07:01:48 20° 85° (E) 1,715 5.1 -34.7°
